Погода в Шпалозаводе

Россия / Томская область     58°55′55″N   81°33′20″E
темп.,
°C
ветер,
м/с
пор.,
м/с
влажн.,
%
обл.,
%
осадки,
мм/ч
давл.,
гПа
погр.,
м
7 марта, вс
вс701:00−5ююз5996100 1.0 998317
04:00−7з81489100 1.5 1000529
07:00−11зюз7129295 1.5 1003255
10:00−11зюз7139195 0.0 1005548
13:00−8зюз8118797 0.1 1008834
16:00−7зюз71088100 0.3 1010906
19:00−8зюз5893100 0.4 1013201
22:00−13зюз459368 0.0 101541
8 марта, пн
пн801:00−14ююз449367 0.0 101627
04:00−14ююв4593100 0.0 101570
07:00−11юв81294100 0.1 1010343
10:00−9юв111694100 2.5 1004717
13:00−2ююв91497100 5.5 998736
16:000ююз121796100 2.1 9931185
19:00−6зюз131978100 2.9 994844
22:00−10зюз10188468 0.1 999839
9 марта, вт
вт901:00−12з9178783 0.1 1004619
04:00−14з71490100 0.0 1008337
07:00−14зюз51090100 0.0 1012178
10:00−12юз51093100 0.1 1015622
13:00−11юз6886100 0.1 1015662
16:00−9ююз7987100 0.1 1015876
19:00−10ю4693100 0.1 1014125
22:00−11ю61093100 0.1 1013255
10 марта, ср
ср1001:00−11ю61194100 0.1 1011444
04:00−11ююз71293100 0.8 1008533
07:00−11ююз71292100 1.1 1007516
10:00−11юз61291100 0.1 1006568
13:00−9юз6889100 0.1 1007540
16:00−7юз4688100 0.1 1007558
19:00−7ю2492100 0.1 1005109
22:00−8вюв3394100 0.0 100247
11 марта, чт
чт1101:00−8всв4596100 1.2 997148
04:00−8ссв4796100 1.7 993253
07:00−8ссз4795100 2.8 993241
10:00−9з4595100 0.5 996203
13:00−6юз71091100 0.9 997872
16:00−5юз101392100 0.6 9981103
19:00−8ююз81489100 0.8 1000676
22:00−13з81692100 0.4 1003544